Location: Unspecified
(34.3540°N, 0.0000°E)
Time: 19:31:26
(UTC+00:00)

Spot 2 Rocket - Visible Passes

Search period start: 04 April 2026 00:00
Search period end: 14 April 2026 00:00
Orbit: 751 x 767 km, 98.3° (Epoch: 29 March)

Date Brightness Start Highest point End Pass type
(mag) Time Alt. Az. Time Alt. Az. Time Alt. Az.
4 Apr 4.6 21:08:02 38° NNW 21:08:02 38° NNW 21:11:07 10° NNW visible
5 Apr 4.5 20:28:52 32° NE 20:28:52 32° NE 20:32:12 10° N visible
5 Apr 6.1 22:08:55 15° WNW 22:08:55 15° WNW 22:10:09 10° NW visible
6 Apr 5.2 19:49:41 16° ENE 19:49:41 16° ENE 19:52:19 10° NNE visible
6 Apr 5.1 21:29:45 31° NW 21:29:45 31° NW 21:32:36 10° NNW visible
7 Apr 4.2 20:50:34 44° NNE 20:50:34 44° NNE 20:54:05 10° N visible
8 Apr 4.7 20:11:24 25° NE 20:11:24 25° NE 20:14:51 10° NNE visible
8 Apr 5.6 21:51:27 22° WNW 21:51:27 22° WNW 21:53:48 10° NW visible
9 Apr 5.5 19:32:14 11° ENE 19:32:33 11° ENE 19:33:41 10° NE visible
9 Apr 4.4 21:12:17 44° NNW 21:12:17 44° NNW 21:15:46 10° NNW visible
10 Apr 4.2 20:33:06 39° NE 20:33:06 39° NE 20:36:56 10° N visible
10 Apr 6.1 22:13:11 14° WNW 22:13:11 14° WNW 22:14:32 10° NW visible
11 Apr 5.0 19:53:56 18° ENE 19:53:56 18° ENE 19:57:14 10° NNE visible
11 Apr 5.0 21:34:00 33° NW 21:34:00 33° NW 21:37:11 10° NNW visible
12 Apr 3.9 20:54:50 54° N 20:54:50 54° N 20:58:46 10° N visible
13 Apr 4.5 20:15:39 29° ENE 20:15:39 29° ENE 20:19:38 10° N visible
13 Apr 5.6 21:55:43 22° WNW 21:55:43 22° WNW 21:58:18 10° NW visible
